Regional Weather Roundup
Issued by NWS

Home | Current Version | Previous Version | Text Only | Print | Product List | Glossary On
Versions: 1 2 3 4 5 6 7 8 9 10 11 12 13 14 15 16 17 18 19 20 21 22 23 24 25 26 27 28 29 30 31 32 33 34 35 36 37 38 39 40 41 42 43 44 45 46 47 48 49 50
000
ASCA42 TJSJ 261710
RWRPR
PUERTO RICO/U.S. VIRGIN ISLANDS HOURLY WEATHER ROUNDUP
NATIONAL WEATHER SERVICE SAN JUAN PR
100 PM AST WED JUL 26 2017

PRZ001>002-007>008-010-261800-
PUERTO RICO

CITY           SKY/WX    TMP DP  RH WIND       PRES   REMARKS
SAN JUAN LMM   LGT RAIN  79  75  89 E7        30.00F
AGUADILLA      PTSUNNY   79  70  73 S5        30.03R THUNDER
CEIBA          MOSUNNY   88  79  74 E8        30.01F HX 102
$$

VIZ001>002-261800-
U.S. VIRGIN ISLANDS

CITY           SKY/WX    TMP DP  RH WIND       PRES   REMARKS
CHARLOTTE AMA    N/A    N/A N/A N/A MISG      29.99F
CHRISTIANSTED  MOSUNNY   90  77  66 E14G21    30.00F HX 102
$$

HOURLY WEATHER ROUNDUP FOR THE NEWS MEDIA

CITY           SKY/WX    TMP DP  RH WIND       PRES   REMARKS
ORLANDO        PTSUNNY   91  76  61 S3        30.09F HX 103
NEW YORK       MOSUNNY   75  60  59 S13       30.24F
NEWARK         MOSUNNY   75  55  49 S10       30.22F
CHICAGO        PTSUNNY   82  68  62 S9        30.05F
HARTFORD       PTSUNNY   76  58  53 S8        30.19F
BOSTON         MOSUNNY   73  58  59 SE9       30.19F
DALLAS         MOSUNNY   90  73  57 S14       30.07F HX  98
PHILADELPHIA   PTSUNNY   78  62  57 VRB6      30.22F
LOS ANGELES    MOSUNNY   72  64  76 SW8       30.02S
WASHINGTON DC  PTSUNNY   78  61  55 W3        30.20S


USA.gov is the U.S. government's official web portal to all federal, state and local government web resources and services.